User: anonymous   Login
Location: Unspecified
(0.0000°N, 0.0000°E)
Time: 19:28:38
(UTC+00:00)
Language:

USA 153 - Orbit

View from above orbital plane
View from above orbital plane
View from above satellite
View from above satellite

Ground track
Ground track

The orbit data is extracted from the following two-line orbital elements,

1 26575U 00065A   19082.85264201 -.00000342  00000-0  00000+0 0  9993
2 26575   7.1687  52.3919 0002199 315.9645 254.0095  1.00268780  5113
Epoch (UTC): 23 March 2019 20:27:48
Eccentricity: 0.0002199
inclination: 7.1687°
perigee height: 35778 km
apogee height: 35796 km
right ascension of ascending node: 52.3919°
argument of perigee: 315.9645°
revolutions per day: 1.00268780
mean anomaly at epoch: 254.0095°
orbit number at epoch: 511

The dashed part of the orbit path shows where the satellite is in the earth's shadow,  

DLR